User: anonymous   Login
Location: Carson
(33.8314°N, 118.2820°W)
Time: 23:37:35
(UTC+00:00)
Language:

Delta 2 Rocket - Orbit

View from above orbital plane
View from above orbital plane
View from above satellite
View from above satellite

Ground track
Ground track

The orbit data is extracted from the following two-line orbital elements,

1 20453U 90008B   21061.65709956  .00001359  00000-0  76458-4 0  9990
2 20453  35.6252 173.0851 0278882 301.2310  56.1356 14.86307750649623
Epoch (UTC): 02 March 2021 15:46:13
Eccentricity: 0.0278882
inclination: 35.6252°
perigee height: 414 km
apogee height: 804 km
right ascension of ascending node: 173.0851°
argument of perigee: 301.2310°
revolutions per day: 14.86307750
mean anomaly at epoch: 56.1356°
orbit number at epoch: 64962

The dashed part of the orbit path shows where the satellite is in the earth's shadow,  

DLR